[[{"header":{"parameterUnit":"m.s-1","parameterCategory":1,"la1":30.2991,"la2":30.254,"lo1":-89.0895,"lo2":-89.0444,"dy":0.0017,"dx":0.0017,"nx":28,"ny":28,"refTime":"2025-12-10T09:00:00:Z","depth":0,"parameterNumber":2,"parameterNumberName":"U-component_of_WINDS"},"data":[0,0,0,0,0,0,0,0,0,0,0,0,0,0,0,0,0,0,0,0,0,0,0,0,0,0,0,0,0,0,0,0,0,0,0,0,0,0,0,0,0,0,0,0,0,0,0,0,0,0,0,0,0,0,0,0,0,0,-0.6039,-0.6038,0,-0.6012,-0.6011,-0.6011,-0.5957,-0.5956,-0.5955,-0.5954,-0.5928,-0.5928,-0.5928,0,0,0,0,0,0,0,0,0,0,0,0,0,-0.6045,-0.6045,-0.6039,-0.6038,-0.6038,-0.6012,-0.6011,-0.6011,-0.5957,-0.5956,-0.5954,-0.5953,-0.5928,-0.5928,-0.5928,0,0,0,0,0,0,0,0,0,0,0,0,0,-0.6033,-0.6045,-0.6039,-0.6008,-0.6005,-0.6012,-0.6011,-0.6011,-0.5957,-0.5956,-0.5954,-0.5952,-0.5928,-0.5928,-0.5928,-0.5964,0,0,-0.593,-0.593,0,0,0,0,0,0,0,0,-0.6034,-0.6033,-0.6013,-0.601,-0.6007,-0.5986,-0.6004,-0.5995,-0.5958,-0.5975,-0.5953,-0.5952,-0.5949,-0.5947,-0.5946,-0.5963,-0.5962,-0.593,-0.593,-0.5931,-0.5931,0,0,0,0,0,0,0,-0.6035,-0.6034,-0.6028,-0.6012,-0.6009,-0.5996,-0.5992,-0.6002,-0.5971,-0.5974,-0.597,-0.5967,-0.5947,-0.5945,-0.5945,-0.5961,-0.593,-0.593,-0.5931,-0.5931,-0.6008,-0.6009,0,0,0,0,0,0,-0.604,-0.6035,-0.6029,-0.6027,-0.6016,-0.5997,-0.5993,-0.5994,-0.5971,-0.5966,-0.5968,-0.5965,-0.5945,-0.5944,-0.5944,-0.5985,-0.5931,-0.5931,-0.5931,-0.6006,-0.6008,-0.601,0,0,0,0,0,0,-0.604,-0.604,-0.603,-0.603,-0.6028,-0.5999,-0.6,-0.5995,-0.5993,-0.5967,-0.5962,-0.5973,-0.5944,-0.5943,-0.596,-0.5983,-0.5931,-0.5932,-0.6004,-0.6007,-0.6009,-0.6067,0,0,0,0,0,0,-0.604,-0.604,-0.6053,-0.603,-0.6028,-0.6046,-0.6002,-0.5995,-0.5994,-0.5989,-0.597,-0.5965,-0.5943,-0.5959,-0.596,-0.5983,-0.5932,-0.6002,-0.6005,-0.6008,-0.6063,-0.6072,-0.6079,0,0,0,0,0,-0.6041,-0.607,-0.6054,-0.6053,-0.6043,-0.6047,-0.6046,-0.6019,-0.5996,-0.6009,-0.5993,-0.5966,-0.598,-0.5961,-0.5962,-0.5985,-0.6,-0.6004,-0.6008,-0.606,-0.607,-0.6079,0,0,0,0,0,0,-0.6097,-0.6067,-0.6048,-0.6071,-0.6062,-0.6038,-0.6054,-0.603,-0.6028,-0.6023,-0.599,-0.5987,-0.6008,-0.5998,-0.5977,-0.6019,-0.5986,-0.599,-0.6025,-0.6035,-0.6042,-0.6045,-0.5932,0,0,0,0,0,-0.6112,-0.6117,-0.6091,-0.6114,-0.611,-0.6083,-0.6084,-0.6064,-0.6053,-0.6049,-0.6034,-0.6025,-0.6028,-0.6031,-0.6031,-0.6061,-0.6057,-0.6077,-0.6085,-0.6092,-0.6096,-0.6113,-0.6122,-0.6023,-0.6023,-0.6023,0,0,-0.6143,-0.6127,-0.6133,-0.6125,-0.6115,-0.6123,-0.608,-0.6089,-0.6095,-0.6051,-0.6066,-0.6054,-0.6043,-0.6066,-0.6076,-0.6059,-0.6123,-0.6097,-0.6102,-0.6103,-0.6118,-0.6127,-0.6135,-0.6026,-0.6025,-0.6025,0,0,-0.6203,-0.6192,-0.621,-0.6201,-0.6188,-0.6169,-0.6174,-0.6153,-0.6144,-0.6158,-0.6126,-0.6132,-0.6137,-0.6131,-0.6128,-0.6187,-0.6163,-0.6188,-0.6229,-0.6245,-0.6253,-0.626,-0.6282,-0.629,-0.6192,-0.6192,-0.6192,0,-0.6244,-0.6253,-0.6222,-0.6234,-0.6232,-0.6192,-0.6211,-0.6205,-0.6192,-0.6192,-0.6173,-0.6179,-0.6168,-0.619,-0.6205,-0.6203,-0.6208,-0.619,-0.6254,-0.6261,-0.6267,-0.6288,-0.6296,-0.6195,-0.6195,-0.6195,-0.6194,0,-0.6304,-0.6311,-0.6328,-0.6317,-0.6316,-0.6331,-0.6304,-0.6308,-0.6288,-0.6272,-0.6288,-0.6273,-0.6271,-0.6274,-0.6255,-0.6294,-0.6284,-0.626,-0.6226,-0.628,-0.6299,-0.6307,-0.62,-0.6199,-0.6198,-0.6197,0,0,-0.64,-0.6372,-0.6379,-0.6373,-0.6356,-0.6361,-0.6374,-0.6372,-0.6376,-0.6369,-0.6381,-0.6386,-0.6364,-0.6361,-0.634,-0.6354,-0.6403,-0.6328,-0.6328,-0.6344,-0.6447,-0.6467,-0.6476,-0.6387,-0.6388,-0.6389,-0.6449,0,-0.6458,-0.6479,-0.6452,-0.648,-0.6487,-0.6449,-0.6461,-0.6452,-0.6438,-0.6442,-0.6426,-0.6431,-0.64,-0.6399,-0.6411,-0.6395,-0.6424,-0.639,-0.6399,-0.6399,-0.6404,-0.6486,-0.6506,-0.6563,-0.6456,-0.6457,-0.6458,0,-0.6528,-0.6524,-0.6553,-0.6534,-0.6535,-0.6547,-0.6543,-0.6547,-0.6536,-0.6524,-0.6522,-0.6497,-0.651,-0.6477,-0.6495,-0.6473,-0.6474,-0.6467,-0.6469,-0.647,-0.6433,-0.6491,-0.6581,-0.659,-0.6469,-0.6468,-0.6468,0,-0.6597,-0.6598,-0.6616,-0.6612,-0.659,-0.66,-0.6591,-0.6578,-0.6579,-0.6576,-0.6576,-0.6574,-0.6574,-0.6574,-0.655,-0.6527,-0.6572,-0.6536,-0.6564,-0.6565,-0.6576,-0.6576,-0.6669,-0.6575,-0.6575,-0.6575,-0.6574,0,-0.6665,-0.6684,-0.6647,-0.6658,-0.6678,-0.6647,-0.6669,-0.6657,-0.6646,-0.6655,-0.6622,-0.6631,-0.6598,-0.6604,-0.6585,-0.6604,-0.6604,-0.6596,-0.6591,-0.6599,-0.6601,-0.6601,-0.6597,-0.6577,-0.6576,-0.6576,-0.6576,0,-0.6745,-0.6721,-0.6738,-0.6716,-0.671,-0.6727,-0.6708,-0.6718,-0.6701,-0.6713,-0.6714,-0.6688,-0.6693,-0.6669,-0.6669,-0.6657,-0.6686,-0.6674,-0.669,-0.6687,-0.6716,-0.6715,-0.6814,-0.6827,-0.6724,-0.6725,-0.6725,0,-0.6791,-0.6805,-0.6784,-0.6787,-0.678,-0.6786,-0.6786,-0.6757,-0.6758,-0.6748,-0.6759,-0.6761,-0.6762,-0.6772,-0.6754,-0.6754,-0.6743,-0.6778,-0.6743,-0.6751,-0.6745,-0.6745,-0.6747,-0.6785,-0.6787,-0.6788,-0.6789,0,-0.6875,-0.6863,-0.6864,-0.6862,-0.6863,-0.686,-0.6854,-0.6859,-0.6827,-0.6831,-0.6835,-0.6836,-0.6836,-0.684,-0.6837,-0.6829,-0.6804,-0.6799,-0.6806,-0.6816,-0.6825,-0.6822,-0.6711,-0.6798,-0.6797,-0.6796,-0.6796,-0.6795,-0.6941,-0.6952,-0.6939,-0.6942,-0.6935,-0.6931,-0.6939,-0.6923,-0.6927,-0.6925,-0.6907,-0.6915,-0.6905,-0.6899,-0.6893,-0.69,-0.6883,-0.6893,-0.6895,-0.6899,-0.6905,-0.6823,-0.6899,-0.6899,-0.6898,-0.6898,-0.6898,0,-0.7024,-0.7014,-0.7017,-0.7011,-0.7014,-0.6989,-0.6982,-0.6986,-0.6994,-0.6986,-0.6987,-0.6993,-0.6996,-0.6978,-0.6979,-0.6988,-0.6977,-0.6989,-0.6989,-0.6988,-0.6918,-0.6913,-0.6998,-0.6998,-0.6998,-0.6998,-0.6998,-0.6998,-0.7068,-0.7086,-0.7072,-0.7087,-0.7076,-0.7084,-0.7082,-0.7079,-0.7072,-0.708,-0.7083,-0.7071,-0.7059,-0.7059,-0.7061,-0.7056,-0.7058,-0.7075,-0.7066,-0.7002,-0.6992,-0.6983,-0.6978,-0.7076,-0.7076,-0.7135,-0.7136,-0.7136]},{"header":{"parameterUnit":"m.s-1","parameterCategory":1,"la1":30.2991,"la2":30.254,"lo1":-89.0895,"lo2":-89.0444,"dy":0.0017,"dx":0.0017,"nx":28,"ny":28,"refTime":"2025-12-10T09:00:00:Z","depth":0,"parameterNumber":3,"parameterNumberName":"V-component_of_WINDS"},"data":[0,0,0,0,0,0,0,0,0,0,0,0,0,0,0,0,0,0,0,0,0,0,0,0,0,0,0,0,0,0,0,0,0,0,0,0,0,0,0,0,0,0,0,0,0,0,0,0,0,0,0,0,0,0,0,0,0,0,1.1389,1.1388,0,1.1327,1.1327,1.1326,1.1317,1.1317,1.1318,1.1318,1.1252,1.125,1.1248,0,0,0,0,0,0,0,0,0,0,0,0,0,1.1496,1.1494,1.1389,1.1388,1.1388,1.1328,1.1327,1.1326,1.1317,1.1317,1.1318,1.1319,1.1253,1.125,1.1248,0,0,0,0,0,0,0,0,0,0,0,0,0,1.1443,1.1493,1.1389,1.1376,1.1374,1.1328,1.1327,1.1326,1.1316,1.1317,1.1318,1.1319,1.1254,1.1251,1.1247,1.1209,0,0,1.1237,1.1235,0,0,0,0,0,0,0,0,1.1446,1.1439,1.1378,1.1377,1.1374,1.1331,1.134,1.1287,1.1316,1.1338,1.1318,1.1319,1.1277,1.1272,1.1259,1.1206,1.1203,1.1236,1.1234,1.1233,1.1232,0,0,0,0,0,0,0,1.145,1.1442,1.1365,1.1378,1.1375,1.1372,1.1365,1.133,1.1304,1.1336,1.1335,1.1328,1.1276,1.1262,1.1257,1.1202,1.1237,1.1233,1.1231,1.123,1.1114,1.1113,0,0,0,0,0,0,1.1456,1.1445,1.1367,1.1363,1.1413,1.1369,1.1362,1.1344,1.1304,1.1299,1.1328,1.1328,1.1267,1.1261,1.1255,1.1207,1.1233,1.123,1.1228,1.1115,1.1114,1.1113,0,0,0,0,0,0,1.1459,1.1449,1.1369,1.1404,1.1393,1.1366,1.1346,1.1342,1.1328,1.1298,1.1293,1.1318,1.1268,1.1259,1.1221,1.1204,1.1228,1.1225,1.1117,1.1115,1.1114,1.1111,0,0,0,0,0,0,1.1462,1.145,1.1436,1.1403,1.1391,1.1337,1.1345,1.134,1.1322,1.1322,1.1287,1.1282,1.1268,1.1226,1.1217,1.12,1.1222,1.1118,1.1116,1.1114,1.1112,1.111,1.1107,0,0,0,0,0,1.1466,1.1438,1.1436,1.1426,1.1374,1.1336,1.1329,1.1314,1.1321,1.1306,1.1287,1.1283,1.1208,1.1222,1.1212,1.1194,1.1119,1.1116,1.1114,1.1114,1.111,1.1107,0,0,0,0,0,0,1.1468,1.1433,1.143,1.1391,1.1367,1.1335,1.1315,1.1311,1.1283,1.1284,1.1266,1.1258,1.122,1.1203,1.1219,1.1154,1.1164,1.1159,1.1167,1.1163,1.1161,1.1165,1.122,0,0,0,0,0,1.1465,1.1438,1.1408,1.1377,1.1365,1.1342,1.1325,1.1316,1.1289,1.1279,1.1257,1.123,1.12,1.1181,1.1152,1.111,1.1102,1.1093,1.109,1.1088,1.1084,1.106,1.1055,1.1105,1.1105,1.1106,0,0,1.1456,1.1434,1.1418,1.1377,1.1357,1.1328,1.1334,1.1304,1.1282,1.1274,1.1236,1.1219,1.1188,1.1147,1.1128,1.1132,1.1069,1.1085,1.1084,1.1081,1.1057,1.1052,1.1048,1.1104,1.1104,1.1104,0,0,1.1427,1.1408,1.1379,1.1359,1.1328,1.1314,1.1307,1.1275,1.1263,1.1225,1.1218,1.1192,1.1141,1.1119,1.1101,1.1063,1.1058,1.1054,1.104,1.1016,1.1012,1.1009,1.0994,1.0989,1.105,1.105,1.105,0,1.142,1.1378,1.1364,1.1334,1.1316,1.1308,1.1278,1.1259,1.122,1.1207,1.1212,1.1148,1.1127,1.108,1.1071,1.1057,1.1048,1.1057,1.1014,1.101,1.1007,1.0992,1.0987,1.105,1.105,1.105,1.105,0,1.1371,1.1342,1.1322,1.1286,1.1265,1.1235,1.1215,1.1196,1.1188,1.1173,1.1133,1.1107,1.1073,1.1061,1.1053,1.1013,1.1016,1.1018,1.1027,1.1002,1.0988,1.0982,1.1049,1.1049,1.105,1.105,0,0,1.1341,1.1297,1.129,1.1273,1.1239,1.1216,1.1185,1.1152,1.1135,1.1109,1.1082,1.1039,1.104,1.102,1.101,1.0989,1.0959,1.0993,1.0992,1.0986,1.0912,1.091,1.0904,1.0956,1.0955,1.0954,1.0914,0,1.1306,1.1252,1.1238,1.1192,1.1164,1.1156,1.1129,1.1105,1.109,1.1063,1.1046,1.1015,1.102,1.1007,1.0987,1.0967,1.0943,1.097,1.0929,1.0928,1.0936,1.0897,1.0895,1.0858,1.0908,1.0908,1.0907,0,1.1258,1.1232,1.1183,1.1152,1.114,1.1116,1.1084,1.1059,1.1031,1.1021,1.0998,1.099,1.0956,1.0968,1.0921,1.0939,1.0921,1.0909,1.0907,1.0902,1.0915,1.0889,1.0846,1.084,1.0898,1.0899,1.09,0,1.124,1.1192,1.1156,1.1142,1.1105,1.1088,1.1072,1.1045,1.1026,1.0997,1.0984,1.0952,1.0935,1.091,1.0892,1.0902,1.0846,1.0856,1.0835,1.0836,1.0823,1.0824,1.0775,1.0814,1.0814,1.0814,1.0814,0,1.1202,1.1172,1.1147,1.1125,1.1091,1.1075,1.1041,1.1025,1.1,1.0974,1.0965,1.094,1.0919,1.0891,1.0877,1.0839,1.0832,1.0822,1.0818,1.0822,1.0823,1.0809,1.0811,1.0812,1.0813,1.0813,1.0813,0,1.1175,1.1157,1.1118,1.1086,1.1078,1.1054,1.1026,1.1004,1.0988,1.0955,1.0946,1.0921,1.0888,1.0868,1.0826,1.0816,1.0774,1.0772,1.0784,1.0782,1.0762,1.0763,1.0702,1.0692,1.0738,1.0738,1.0738,0,1.1152,1.1128,1.1095,1.1077,1.1061,1.1032,1.1012,1.0996,1.0975,1.0941,1.0922,1.0889,1.0861,1.0807,1.0785,1.0752,1.0748,1.0729,1.0743,1.0747,1.0746,1.0747,1.0744,1.0726,1.0726,1.0725,1.0725,0,1.1111,1.1104,1.1076,1.1046,1.1023,1.0997,1.0972,1.0958,1.0937,1.0914,1.088,1.0859,1.0815,1.0781,1.0747,1.0729,1.0722,1.0721,1.0714,1.0717,1.0724,1.0719,1.0776,1.0722,1.0722,1.0723,1.0723,1.0723,1.1085,1.1063,1.1036,1.1005,1.0985,1.0962,1.0939,1.0921,1.0892,1.0856,1.0848,1.0812,1.0783,1.0736,1.0718,1.0688,1.0691,1.0682,1.0679,1.0677,1.0676,1.073,1.0682,1.0682,1.0682,1.0682,1.0682,0,1.1043,1.1025,1.0997,1.0963,1.0938,1.0936,1.0908,1.0887,1.0856,1.0831,1.0803,1.0764,1.0731,1.0706,1.0671,1.0653,1.0649,1.0644,1.0645,1.064,1.0675,1.0684,1.0647,1.0647,1.0648,1.0648,1.0648,1.0648,1.1018,1.0982,1.0971,1.0924,1.0906,1.0871,1.0855,1.0833,1.0812,1.0769,1.0741,1.0726,1.07,1.0664,1.0633,1.0626,1.0613,1.0608,1.0601,1.0634,1.0638,1.0641,1.0649,1.0606,1.0606,1.0568,1.0568,1.0568]}]]